EW5612 Weather Reports


Display with metric or nautical units.
time (UTC)temp
F
wind
direction
speed
MPH
gust
MPH
rain 1hr
in
rain 24hr
in
rain mn
in
humidity
%
barometer
mb
20260506004204 82 188 0.0 0.0 0.00 0.00 0.00 78 1004.8
20260506003204 82 188 0.0 0.0 0.00 0.00 0.00 76 1004.7
20260506002203 82 188 0.0 0.0 0.00 0.00 0.00 76 1004.6
20260506001704 83 188 0.0 0.0 0.00 0.00 0.00 76 1004.6
20260506001203 83 188 0.0 0.0 0.00 0.00 0.00 75 1004.5
20260506000204 83 188 0.0 0.0 0.00 0.00 0.00 74 1004.6
20260505235703 83 188 0.0 1.0 0.00 0.00 0.00 74 1004.5
20260505235203 83 213 0.0 0.0 0.00 0.00 0.00 73 1004.5
20260505234703 83 216 0.0 3.0 0.00 0.00 0.00 73 1004.4
20260505234203 83 174 0.0 3.0 0.00 0.00 0.00 74 1004.4
20260505233704 84 187 0.0 2.0 0.00 0.00 0.00 73 1004.4
20260505233203 84 187 0.0 2.0 0.00 0.00 0.00 73 1004.4
20260505232703 84 187 0.0 0.0 0.00 0.00 0.00 73 1004.3
20260505232204 84 187 0.0 0.0 0.00 0.00 0.00 73 1004.5
20260505231704 84 187 0.0 0.0 0.00 0.00 0.00 73 1004.4
20260505230203 84 165 0.0 2.0 0.00 0.00 0.00 73 1004.3
20260505225704 84 155 0.0 2.0 0.00 0.00 0.00 73 1004.2
20260505225203 84 154 0.0 0.0 0.00 0.00 0.00 74 1004.4
20260505224704 83 160 0.0 0.0 0.00 0.00 0.00 74 1004.5
20260505224203 84 166 0.0 0.0 0.00 0.00 0.00 73 1004.5
20260505223204 84 177 0.0 0.0 0.00 0.00 0.00 74 1004.3
20260505222704 84 199 0.0 0.0 0.00 0.00 0.00 73 1004.4
20260505222203 84 184 0.0 0.0 0.00 0.00 0.00 73 1004.5
20260505221704 84 186 0.0 0.0 0.00 0.00 0.00 73 1004.5
20260505221204 84 185 0.0 0.0 0.00 0.00 0.00 73 1004.5
20260505220704 84 182 0.0 0.0 0.00 0.00 0.00 73 1004.6
20260505220204 84 150 0.0 0.0 0.00 0.00 0.00 73 1004.7
20260505215704 84 189 0.0 0.0 0.00 0.00 0.00 73 1004.9
20260505214704 84 168 0.0 0.0 0.00 0.00 0.00 73 1004.8
20260505214203 84 187 0.0 0.0 0.00 0.00 0.00 74 1004.8
20260505213704 84 176 0.0 0.0 0.00 0.00 0.00 74 1004.8
20260505212704 84 186 0.0 0.0 0.00 0.00 0.00 73 1004.9
20260505212204 84 183 0.0 0.0 0.00 0.00 0.00 73 1004.9
20260505211703 84 161 0.0 0.0 0.00 0.00 0.00 74 1005.0
20260505210703 83 162 0.0 1.0 0.00 0.00 0.00 73 1005.2
20260505210203 83 181 0.0 0.0 0.00 0.00 0.00 75 1005.3
20260505205704 83 182 0.0 0.0 0.00 0.00 0.00 74 1005.5
20260505205203 83 186 0.0 0.0 0.00 0.00 0.00 74 1005.6
20260505204704 83 180 0.0 7.0 0.00 0.00 0.00 74 1005.7
20260505204204 83 161 0.0 0.0 0.00 0.00 0.00 73 1005.8
20260505203703 83 179 0.0 0.0 0.00 0.00 0.00 73 1005.8
20260505203204 83 153 0.0 0.0 0.00 0.00 0.00 73 1006.0
20260505202203 83 175 0.0 5.0 0.00 0.00 0.00 73 1006.0
20260505201703 83 137 0.0 0.0 0.00 0.00 0.00 74 1006.0
20260505201204 83 138 0.0 1.0 0.00 0.00 0.00 75 1006.0
20260505200704 83 186 0.0 3.0 0.00 0.00 0.00 75 1006.2
20260505195704 82 170 0.0 0.0 0.00 0.00 0.00 76 1006.3
20260505195204 82 146 0.0 1.0 0.00 0.00 0.00 76 1006.3
20260505194704 82 133 0.0 0.0 0.00 0.00 0.00 77 1006.4
20260505194203 82 194 0.0 0.0 0.00 0.00 0.00 77 1006.5
20260505193203 81 160 1.0 5.0 0.00 0.00 0.00 77 1006.6
20260505192704 81 197 0.0 1.0 0.00 0.00 0.00 78 1006.7
20260505191704 81 160 0.0 3.0 0.00 0.00 0.00 79 1006.8
20260505191204 80 177 0.0 2.0 0.00 0.00 0.00 80 1006.8
20260505190204 80 180 0.0 2.0 0.00 0.00 0.00 79 1007.1
20260505185704 80 183 0.0 0.0 0.00 0.00 0.00 79 1007.1
20260505185203 80 193 0.0 1.0 0.00 0.00 0.00 80 1007.1
20260505183703 79 175 0.0 0.0 0.00 0.00 0.00 79 1007.3
20260505182704 79 172 0.0 5.0 0.00 0.00 0.00 81 1007.3
20260505181704 79 171 0.0 5.0 0.00 0.00 0.00 81 1007.6
20260505180703 78 154 1.0 2.0 0.00 0.00 0.00 83 1007.6
20260505180203 78 188 0.0 8.0 0.00 0.00 0.00 83 1007.6
20260505175203 77 184 0.0 1.0 0.00 0.00 0.00 84 1007.8
20260505174203 77 182 0.0 0.0 0.00 0.00 0.00 85 1007.9
20260505173704 76 184 0.0 1.0 0.00 0.00 0.00 86 1007.8
20260505173203 76 185 0.0 1.0 0.00 0.00 0.00 86 1007.8
20260505172704 76 160 0.0 1.0 0.00 0.00 0.00 86 1007.9
20260505172204 76 180 0.0 0.0 0.00 0.00 0.00 87 1007.9
20260505171703 76 184 0.0 0.0 0.00 0.00 0.00 87 1008.0
20260505171204 76 191 0.0 1.0 0.00 0.00 0.00 87 1007.9
20260505170704 75 183 0.0 1.0 0.00 0.00 0.00 87 1008.0
20260505170204 75 175 0.0 1.0 0.00 0.00 0.00 88 1008.0
20260505165704 75 189 0.0 0.0 0.00 0.00 0.00 88 1008.0
20260505165204 75 189 0.0 0.0 0.00 0.00 0.00 88 1008.1
20260505164703 75 167 0.0 2.0 0.00 0.00 0.00 88 1008.1
20260505164203 74 186 0.0 0.0 0.00 0.00 0.00 89 1008.2
20260505163704 74 197 0.0 0.0 0.00 0.00 0.00 89 1008.2
20260505163204 74 230 0.0 0.0 0.00 0.00 0.00 89 1008.3
20260505162704 74 194 0.0 2.0 0.00 0.00 0.00 89 1008.2
20260505162203 74 185 0.0 0.0 0.00 0.00 0.00 89 1008.2
20260505161703 74 190 0.0 0.0 0.00 0.00 0.00 90 1008.2
20260505161204 74 196 0.0 1.0 0.00 0.00 0.00 90 1008.3
20260505160703 73 192 0.0 1.0 0.00 0.00 0.00 91 1008.2
20260505160203 73 172 0.0 1.0 0.00 0.00 0.00 91 1008.3
20260505153203 72 181 0.0 1.0 0.00 0.00 0.00 92 1008.1
20260505152704 72 194 0.0 2.0 0.00 0.00 0.00 93 1008.0
20260505152204 72 201 0.0 0.0 0.00 0.00 0.00 93 1008.1
20260505151704 72 183 0.0 7.0 0.00 0.00 0.00 93 1008.0
20260505151203 72 189 0.0 1.0 0.00 0.00 0.00 93 1008.0
20260505150703 72 208 0.0 1.0 0.00 0.00 0.00 92 1008.0
20260505150204 72 177 0.0 3.0 0.00 0.00 0.00 92 1007.9
20260505140204 72 173 0.0 1.0 0.00 0.00 0.00 91 1007.7
20260505124704 71 187 0.0 3.0 0.00 0.00 0.00 91 1007.0
20260505124203 71 179 0.0 2.0 0.00 0.00 0.00 91 1006.9
20260505123704 71 182 0.0 8.0 0.00 0.00 0.00 91 1007.0
20260505123203 71 188 0.0 2.0 0.00 0.00 0.00 91 1006.9
20260505122704 71 147 0.0 3.0 0.00 0.00 0.00 92 1006.9
20260505122204 71 181 0.0 3.0 0.00 0.00 0.00 92 1007.0
20260505121704 71 178 0.0 1.0 0.00 0.00 0.00 92 1006.9
20260505121203 71 181 0.0 0.0 0.00 0.00 0.00 92 1006.8
20260505120704 71 181 0.0 3.0 0.00 0.00 0.00 92 1006.8
20260505120204 71 166 0.0 5.0 0.00 0.00 0.00 91 1006.6
20260505115704 71 195 0.0 8.0 0.00 0.00 0.00 91 1006.6
20260505115203 71 179 0.0 0.0 0.00 0.00 0.00 91 1006.7
20260505114704 71 181 0.0 3.0 0.00 0.00 0.00 91 1006.7
20260505114204 70 186 0.0 0.0 0.00 0.00 0.00 91 1006.8
20260505113703 70 187 1.0 3.0 0.00 0.00 0.00 91 1006.7
20260505113203 70 182 0.0 1.0 0.00 0.00 0.00 91 1006.7
20260505112704 70 170 0.0 1.0 0.00 0.00 0.00 91 1006.6
20260505112204 70 191 0.0 2.0 0.00 0.00 0.00 91 1006.6
20260505111703 70 193 0.0 0.0 0.00 0.00 0.00 91 1006.7
20260505111204 70 135 0.0 0.0 0.00 0.00 0.00 91 1006.7
20260505110203 70 186 0.0 3.0 0.00 0.00 0.00 91 1006.6
20260505101204 70 192 0.0 2.0 0.00 0.00 0.00 90 1006.8
20260505100704 70 173 0.0 7.0 0.00 0.00 0.00 90 1006.7
20260505095203 70 172 0.0 3.0 0.00 0.00 0.00 90 1006.9
20260505094703 70 186 0.0 8.0 0.00 0.00 0.00 91 1006.8
20260505094204 70 172 2.0 8.0 0.00 0.00 0.00 91 1007.0
20260505093703 70 178 0.0 10.0 0.00 0.00 0.00 91 1006.6
20260505092703 70 156 1.0 8.0 0.00 0.00 0.00 91 1007.0
20260505091703 69 180 1.0 9.0 0.00 0.00 0.00 91 1007.0
20260505090704 69 169 0.0 7.0 0.00 0.00 0.00 91 1007.0
20260505090203 70 172 0.0 2.0 0.00 0.00 0.00 91 1006.9
20260505085704 70 196 1.0 8.0 0.00 0.00 0.00 91 1006.9
20260505085203 70 172 0.0 3.0 0.00 0.00 0.00 90 1006.9
20260505084704 70 182 1.0 7.0 0.00 0.00 0.00 90 1007.2
20260505084204 70 186 0.0 1.0 0.00 0.00 0.00 90 1007.2
20260505083703 70 161 0.0 2.0 0.00 0.00 0.00 90 1007.4
20260505082703 70 183 0.0 1.0 0.00 0.00 0.00 90 1007.3
20260505082204 70 189 0.0 2.0 0.00 0.00 0.00 90 1007.4
20260505081703 70 181 1.0 7.0 0.00 0.00 0.00 90 1007.6
20260505081204 70 168 0.0 3.0 0.00 0.00 0.00 90 1007.5
20260505080703 70 187 0.0 6.0 0.00 0.00 0.00 90 1007.7
20260505080204 70 188 0.0 1.0 0.00 0.00 0.00 90 1007.7
20260505075703 70 180 1.0 3.0 0.00 0.00 0.00 90 1007.8
20260505075204 70 151 0.0 5.0 0.00 0.00 0.00 90 1007.8
20260505074704 70 170 0.0 1.0 0.00 0.00 0.00 90 1007.8
20260505074204 70 169 0.0 1.0 0.00 0.00 0.00 90 1007.7
20260505073703 70 188 1.0 8.0 0.00 0.00 0.00 90 1007.9
20260505073204 70 183 1.0 7.0 0.00 0.00 0.00 90 1007.9
20260505072704 70 171 0.0 3.0 0.00 0.00 0.00 90 1007.9
20260505072204 70 186 1.0 9.0 0.00 0.00 0.00 90 1008.0
20260505071704 70 188 0.0 7.0 0.00 0.00 0.00 90 1007.9
20260505071203 70 175 0.0 6.0 0.00 0.00 0.00 90 1008.1
20260505070703 70 190 0.0 9.0 0.00 0.00 0.00 90 1008.2
20260505070203 70 200 0.0 3.0 0.00 0.00 0.00 90 1008.2
20260505065703 70 196 1.0 6.0 0.00 0.00 0.00 90 1008.3
20260505065203 70 180 1.0 5.0 0.00 0.00 0.00 89 1008.4
20260505064204 70 175 0.0 0.0 0.00 0.00 0.00 89 1008.4
20260505063704 70 185 1.0 8.0 0.00 0.00 0.00 89 1008.5
20260505063204 70 168 0.0 3.0 0.00 0.00 0.00 89 1008.6
20260505062704 70 182 0.0 2.0 0.00 0.00 0.00 89 1008.7
20260505062203 70 185 0.0 1.0 0.00 0.00 0.00 89 1008.7
20260505061703 70 189 1.0 9.0 0.00 0.00 0.00 89 1008.7
20260505060703 70 132 0.0 1.0 0.00 0.00 0.00 89 1008.8
20260505060204 70 187 0.0 0.0 0.00 0.00 0.00 89 1008.7
20260505055704 70 183 1.0 9.0 0.00 0.00 0.00 89 1008.7
20260505055204 70 151 0.0 3.0 0.00 0.00 0.00 89 1008.6
20260505054704 70 156 0.0 3.0 0.00 0.00 0.00 88 1008.6
20260505054203 70 185 0.0 3.0 0.00 0.00 0.00 88 1008.5
20260505053704 70 177 0.0 0.0 0.00 0.00 0.00 88 1008.6
20260505053203 70 165 0.0 2.0 0.00 0.00 0.00 88 1008.6
20260505052704 70 175 0.0 1.0 0.00 0.00 0.00 88 1008.6
20260505051203 70 182 0.0 5.0 0.00 0.00 0.00 88 1008.6
20260505050704 70 152 0.0 3.0 0.00 0.00 0.00 87 1008.6
20260505050204 71 160 0.0 1.0 0.00 0.00 0.00 87 1008.5
20260505041704 71 160 0.0 0.0 0.00 0.00 0.00 85 1008.8
20260505041204 71 163 0.0 0.0 0.00 0.00 0.00 85 1008.9
20260505040703 72 167 0.0 1.0 0.00 0.00 0.00 85 1009.0
20260505040203 72 161 0.0 2.0 0.00 0.00 0.00 84 1008.9
20260505035703 72 177 0.0 3.0 0.00 0.00 0.00 84 1008.8
20260505035204 72 142 0.0 2.0 0.00 0.00 0.00 84 1008.8
20260505034703 72 158 0.0 0.0 0.00 0.00 0.00 84 1008.8
20260505034203 72 133 0.0 1.0 0.00 0.00 0.00 83 1008.7
20260505033703 72 168 0.0 6.0 0.00 0.00 0.00 83 1008.7
20260505033203 72 164 0.0 1.0 0.00 0.00 0.00 83 1008.8
20260505032704 73 167 0.0 0.0 0.00 0.00 0.00 83 1008.7
20260505032203 73 135 0.0 0.0 0.00 0.00 0.00 83 1008.8
20260505031704 73 177 0.0 1.0 0.00 0.00 0.00 82 1008.9
20260505031204 73 150 0.0 0.0 0.00 0.00 0.00 82 1009.0
20260505030704 73 137 0.0 0.0 0.00 0.00 0.00 82 1009.0
20260505025704 73 190 0.0 0.0 0.00 0.00 0.00 81 1008.9
20260505025204 73 129 0.0 1.0 0.00 0.00 0.00 81 1008.8
20260505024703 73 158 0.0 1.0 0.00 0.00 0.00 81 1008.6
20260505023703 74 177 0.0 0.0 0.00 0.00 0.00 81 1008.5
20260505023203 74 176 0.0 0.0 0.00 0.00 0.00 81 1008.5
20260505022703 74 179 0.0 0.0 0.00 0.00 0.00 81 1008.5
20260505021703 74 177 0.0 1.0 0.00 0.00 0.00 80 1008.6
20260505021204 74 177 0.0 0.0 0.00 0.00 0.00 80 1008.5
20260505020703 74 177 0.0 0.0 0.00 0.00 0.00 79 1008.5
20260505020204 74 177 0.0 0.0 0.00 0.00 0.00 79 1008.4
20260505015203 75 183 0.0 0.0 0.00 0.00 0.00 78 1008.4
20260505014704 75 183 0.0 0.0 0.00 0.00 0.00 77 1008.4
20260505014204 75 183 0.0 0.0 0.00 0.00 0.00 77 1008.3
20260505013204 76 184 0.0 0.0 0.00 0.00 0.00 76 1008.3
20260505012704 76 189 0.0 1.0 0.00 0.00 0.00 76 1008.1
20260505012204 76 173 0.0 0.0 0.00 0.00 0.00 75 1008.0
20260505011704 76 173 0.0 0.0 0.00 0.00 0.00 75 1007.9
20260505011204 76 172 0.0 0.0 0.00 0.00 0.00 75 1008.0
20260505010204 77 142 0.0 0.0 0.00 0.00 0.00 73 1008.1
20260505005703 77 137 0.0 0.0 0.00 0.00 0.00 73 1008.1
20260505005204 78 200 0.0 0.0 0.00 0.00 0.00 72 1008.1
20260505004703 78 163 0.0 0.0 0.00 0.00 0.00 71 1008.0